Darstellungsparameter: Aktuell verwendete Einstellungen:
Skalierung der Graphiken ... ?
xyx+y,   Skalierungsfaktor:      Skalierung: Modus: x, Faktor: 1
Darstellungszeitraum ... ?
Vom - - bis: - -   Zeitraum: 31.07.2019 - 31.07.2019
Min/Max/Avg-Anzeige ... ?
Zeige MMA aktuell
Zeige MMA Monat
Zeige MMA alles
Zeige --A aktuell
Zeige --A Monat
Zeige --A alles
Keine MMA-Anzeige
MMA:
Keine MMA-Graphiken
MMA-Basis: 31.07.2019 - 31.07.2019
Quicknavigation für Darstellung... ?
Tage:      1T, 2T, 3T, 5T -1T -2T -3T -5T +1T +2T +3T +5T
Wochen: 1W, 2W, 3W -1W -2W -3W +1W +2W +3W
Monate: 1M, 3M, 6M -1M -3M -6M +1M +3M +6M
Jahre:    1J, 3J, 5J, 10J -1J -3J -5J -10J +1J +3J +5J +10J
Nutze für die Darstellung ... ?
Originaldaten oder Mittelwerte auf ...
Stundenbasis Tagesbasis Wochenbasis
Monatsbasis Jahresbasis      Datenbasis: Original-Daten
Darstellen als:
Statistik (Auto) Statistik J:M      Darstellung:
Zur Graphik,    zurück zur Übersicht aller Sensoren.
 
Tabellarische Datenbersicht: ?
 
Sensor: Nr:Datum:Temp:Feuchte:Taupunkt:
Aussen-T/F 1 31-07-2019 00:00:00 20.7 C 69 % 14.81 C
2 31-07-2019 00:05:00 20.7 C 69 % 14.81 C
3 31-07-2019 00:10:00 20.7 C 69 % 14.81 C
4 31-07-2019 00:15:00 20.6 C 69 % 14.71 C
5 31-07-2019 00:20:00 20.6 C 70 % 14.94 C
6 31-07-2019 00:25:00 20.6 C 70 % 14.94 C
7 31-07-2019 00:30:00 20.6 C 69 % 14.71 C
8 31-07-2019 00:35:00 20.5 C 70 % 14.84 C
9 31-07-2019 00:40:00 20.4 C 70 % 14.75 C
10 31-07-2019 00:45:00 20.4 C 71 % 14.97 C
11 31-07-2019 00:50:00 20.4 C 71 % 14.97 C
12 31-07-2019 00:55:00 20.4 C 71 % 14.97 C
13 31-07-2019 01:00:00 20.3 C 71 % 14.87 C
14 31-07-2019 01:05:00 20.3 C 71 % 14.87 C
15 31-07-2019 01:10:00 20.3 C 71 % 14.87 C
16 31-07-2019 01:15:00 20.3 C 71 % 14.87 C
17 31-07-2019 01:20:00 20.3 C 71 % 14.87 C
18 31-07-2019 01:25:00 20.3 C 71 % 14.87 C
19 31-07-2019 01:30:00 20.3 C 71 % 14.87 C
20 31-07-2019 01:35:00 20.3 C 71 % 14.87 C
21 31-07-2019 01:40:00 20.4 C 71 % 14.97 C
22 31-07-2019 01:45:00 20.4 C 71 % 14.97 C
23 31-07-2019 01:50:00 20.4 C 71 % 14.97 C
24 31-07-2019 01:55:00 20.3 C 71 % 14.87 C
25 31-07-2019 02:00:00 20.2 C 71 % 14.78 C
Sensor: Nr:Datum:Temp:Feuchte:Taupunkt:
Aussen-T/F 26 31-07-2019 02:05:00 20.1 C 71 % 14.68 C
27 31-07-2019 02:10:00 19.9 C 71 % 14.49 C
28 31-07-2019 02:15:00 19.8 C 71 % 14.39 C
29 31-07-2019 02:20:00 19.8 C 72 % 14.61 C
30 31-07-2019 02:25:00 19.7 C 72 % 14.51 C
31 31-07-2019 02:30:00 19.7 C 72 % 14.51 C
32 31-07-2019 02:35:00 19.6 C 72 % 14.42 C
33 31-07-2019 02:40:00 19.6 C 72 % 14.42 C
34 31-07-2019 02:45:00 19.4 C 72 % 14.22 C
35 31-07-2019 02:50:00 19.4 C 72 % 14.22 C
36 31-07-2019 02:55:00 19.3 C 72 % 14.13 C
37 31-07-2019 03:00:00 19.2 C 72 % 14.03 C
38 31-07-2019 03:05:00 19.1 C 73 % 14.15 C
39 31-07-2019 03:10:00 18.9 C 73 % 13.96 C
40 31-07-2019 03:15:00 18.8 C 74 % 14.07 C
41 31-07-2019 03:20:00 18.7 C 74 % 13.97 C
42 31-07-2019 03:25:00 18.6 C 75 % 14.08 C
43 31-07-2019 03:30:00 18.6 C 76 % 14.29 C
44 31-07-2019 03:35:00 18.4 C 76 % 14.1 C
45 31-07-2019 03:40:00 18.4 C 76 % 14.1 C
46 31-07-2019 03:45:00 18.3 C 77 % 14.2 C
47 31-07-2019 03:50:00 18.3 C 77 % 14.2 C
48 31-07-2019 03:55:00 18.3 C 78 % 14.4 C
49 31-07-2019 04:00:00 18.3 C 78 % 14.4 C
50 31-07-2019 04:05:00 18.3 C 79 % 14.6 C
Sensor: Nr:Datum:Temp:Feuchte:Taupunkt:
Aussen-T/F 51 31-07-2019 04:10:00 18.3 C 78 % 14.4 C
52 31-07-2019 04:15:00 18.4 C 78 % 14.5 C
53 31-07-2019 04:20:00 18.6 C 77 % 14.49 C
54 31-07-2019 04:25:00 18.7 C 77 % 14.59 C
55 31-07-2019 04:30:00 18.7 C 76 % 14.39 C
56 31-07-2019 04:35:00 18.7 C 76 % 14.39 C
57 31-07-2019 04:40:00 18.8 C 76 % 14.48 C
58 31-07-2019 04:45:00 18.8 C 77 % 14.68 C
59 31-07-2019 04:50:00 18.7 C 76 % 14.39 C
60 31-07-2019 04:55:00 18.6 C 76 % 14.29 C
61 31-07-2019 05:00:00 18.4 C 76 % 14.1 C
62 31-07-2019 05:05:00 18.3 C 76 % 14 C
63 31-07-2019 05:10:00 18.1 C 76 % 13.81 C
64 31-07-2019 05:15:00 17.9 C 77 % 13.81 C
65 31-07-2019 05:20:00 17.8 C 78 % 13.91 C
66 31-07-2019 05:25:00 17.7 C 78 % 13.82 C
67 31-07-2019 05:30:00 17.7 C 79 % 14.01 C
68 31-07-2019 05:35:00 17.6 C 79 % 13.92 C
69 31-07-2019 05:40:00 17.6 C 79 % 13.92 C
70 31-07-2019 05:45:00 17.6 C 79 % 13.92 C
71 31-07-2019 05:50:00 17.6 C 80 % 14.11 C
72 31-07-2019 05:55:00 17.7 C 79 % 14.01 C
73 31-07-2019 06:00:00 17.7 C 79 % 14.01 C
74 31-07-2019 06:05:00 17.7 C 79 % 14.01 C
75 31-07-2019 06:10:00 17.7 C 79 % 14.01 C
Sensor: Nr:Datum:Temp:Feuchte:Taupunkt:
Aussen-T/F 76 31-07-2019 06:15:00 17.8 C 78 % 13.91 C
77 31-07-2019 06:20:00 17.8 C 78 % 13.91 C
78 31-07-2019 06:25:00 17.7 C 78 % 13.82 C
79 31-07-2019 06:30:00 17.7 C 78 % 13.82 C
80 31-07-2019 06:35:00 17.7 C 78 % 13.82 C
81 31-07-2019 06:40:00 17.6 C 78 % 13.72 C
82 31-07-2019 06:45:00 17.5 C 78 % 13.62 C
83 31-07-2019 06:50:00 17.4 C 79 % 13.72 C
84 31-07-2019 06:55:00 17.4 C 79 % 13.72 C
85 31-07-2019 07:00:00 17.3 C 79 % 13.63 C
86 31-07-2019 07:05:00 17.3 C 80 % 13.82 C
87 31-07-2019 07:10:00 17.3 C 80 % 13.82 C
88 31-07-2019 07:15:00 17.3 C 80 % 13.82 C
89 31-07-2019 07:20:00 17.3 C 80 % 13.82 C
90 31-07-2019 07:25:00 17.3 C 80 % 13.82 C
91 31-07-2019 07:30:00 17.3 C 80 % 13.82 C
92 31-07-2019 07:35:00 17.4 C 80 % 13.92 C
93 31-07-2019 07:40:00 17.4 C 80 % 13.92 C
94 31-07-2019 07:45:00 17.4 C 80 % 13.92 C
95 31-07-2019 07:50:00 17.6 C 80 % 14.11 C
96 31-07-2019 07:55:00 17.6 C 80 % 14.11 C
97 31-07-2019 08:00:00 17.7 C 79 % 14.01 C
98 31-07-2019 08:05:00 17.8 C 78 % 13.91 C
99 31-07-2019 08:10:00 17.9 C 78 % 14.01 C
100 31-07-2019 08:15:00 18 C 78 % 14.11 C
Sensor: Nr:Datum:Temp:Feuchte:Taupunkt:
Aussen-T/F 101 31-07-2019 08:20:00 18.1 C 79 % 14.4 C
102 31-07-2019 08:25:00 18.2 C 76 % 13.9 C
103 31-07-2019 08:30:00 18.4 C 75 % 13.89 C
104 31-07-2019 08:35:00 18.7 C 74 % 13.97 C
105 31-07-2019 08:40:00 18.9 C 73 % 13.96 C
106 31-07-2019 08:45:00 19.1 C 72 % 13.94 C
107 31-07-2019 08:50:00 19.2 C 72 % 14.03 C
108 31-07-2019 08:55:00 19.3 C 71 % 13.91 C
109 31-07-2019 09:00:00 19.4 C 72 % 14.22 C
110 31-07-2019 09:05:00 19.5 C 71 % 14.1 C
111 31-07-2019 09:10:00 19.6 C 70 % 13.98 C
112 31-07-2019 09:15:00 19.8 C 70 % 14.17 C
113 31-07-2019 09:20:00 19.8 C 69 % 13.95 C
114 31-07-2019 09:25:00 19.9 C 68 % 13.82 C
115 31-07-2019 09:30:00 20.1 C 67 % 13.78 C
116 31-07-2019 09:35:00 20.2 C 67 % 13.88 C
117 31-07-2019 09:40:00 20.4 C 66 % 13.84 C
118 31-07-2019 09:45:00 20.4 C 65 % 13.6 C
119 31-07-2019 09:50:00 20.5 C 64 % 13.46 C
120 31-07-2019 09:55:00 20.6 C 63 % 13.31 C
121 31-07-2019 10:00:00 20.7 C 64 % 13.65 C
122 31-07-2019 10:05:00 20.8 C 62 % 13.26 C
123 31-07-2019 10:10:00 20.9 C 61 % 13.1 C
124 31-07-2019 10:15:00 21.2 C 61 % 13.38 C
125 31-07-2019 10:20:00 21.4 C 59 % 13.06 C
Sensor: Nr:Datum:Temp:Feuchte:Taupunkt:
Aussen-T/F 126 31-07-2019 10:25:00 21.4 C 57 % 12.53 C
127 31-07-2019 10:30:00 21.4 C 57 % 12.53 C
128 31-07-2019 10:35:00 21.5 C 56 % 12.36 C
129 31-07-2019 10:40:00 21.7 C 57 % 12.81 C
130 31-07-2019 10:45:00 21.8 C 58 % 13.17 C
131 31-07-2019 10:50:00 21.8 C 56 % 12.64 C
132 31-07-2019 10:55:00 21.7 C 57 % 12.81 C
133 31-07-2019 11:00:00 21.5 C 56 % 12.36 C
134 31-07-2019 11:05:00 21.3 C 56 % 12.17 C
135 31-07-2019 11:10:00 21.1 C 58 % 12.52 C
136 31-07-2019 11:15:00 21.1 C 57 % 12.25 C
137 31-07-2019 11:20:00 21.2 C 57 % 12.35 C
138 31-07-2019 11:25:00 21.4 C 56 % 12.27 C
139 31-07-2019 11:30:00 21.6 C 55 % 12.18 C
140 31-07-2019 11:35:00 21.8 C 54 % 12.08 C
141 31-07-2019 11:40:00 21.9 C 54 % 12.18 C
142 31-07-2019 11:45:00 22 C 54 % 12.27 C
143 31-07-2019 11:50:00 22.2 C 53 % 12.17 C
144 31-07-2019 11:55:00 22.2 C 53 % 12.17 C
145 31-07-2019 12:00:00 22.1 C 52 % 11.79 C
146 31-07-2019 12:05:00 22.2 C 52 % 11.88 C
147 31-07-2019 12:10:00 22.3 C 52 % 11.97 C
148 31-07-2019 12:15:00 22.6 C 53 % 12.54 C
149 31-07-2019 12:20:00 22.8 C 52 % 12.43 C
150 31-07-2019 12:25:00 22.9 C 51 % 12.23 C
Sensor: Nr:Datum:Temp:Feuchte:Taupunkt:
Aussen-T/F 151 31-07-2019 12:30:00 22.9 C 48 % 11.31 C
152 31-07-2019 12:35:00 22.7 C 49 % 11.44 C
153 31-07-2019 12:40:00 22.8 C 49 % 11.53 C
154 31-07-2019 12:45:00 22.8 C 50 % 11.84 C
155 31-07-2019 12:50:00 22.9 C 51 % 12.23 C
156 31-07-2019 12:55:00 23 C 51 % 12.32 C
157 31-07-2019 13:00:00 23.1 C 52 % 12.71 C
158 31-07-2019 13:05:00 23.2 C 51 % 12.51 C
159 31-07-2019 13:10:00 23.3 C 49 % 11.99 C
160 31-07-2019 13:15:00 23.3 C 47 % 11.36 C
161 31-07-2019 13:20:00 23.4 C 47 % 11.45 C
162 31-07-2019 13:25:00 23.6 C 47 % 11.63 C
163 31-07-2019 13:30:00 23.9 C 46 % 11.58 C
164 31-07-2019 13:35:00 24 C 45 % 11.34 C
165 31-07-2019 13:40:00 24 C 46 % 11.67 C
166 31-07-2019 13:45:00 24.1 C 45 % 11.43 C
167 31-07-2019 13:50:00 24.2 C 44 % 11.18 C
168 31-07-2019 13:55:00 24.2 C 45 % 11.52 C
169 31-07-2019 14:00:00 24.3 C 44 % 11.27 C
170 31-07-2019 14:05:00 24.4 C 44 % 11.36 C
171 31-07-2019 14:10:00 24.3 C 43 % 10.93 C
172 31-07-2019 14:15:00 24.4 C 43 % 11.02 C
173 31-07-2019 14:20:00 24.5 C 44 % 11.45 C
174 31-07-2019 14:25:00 24.7 C 44 % 11.63 C
175 31-07-2019 14:30:00 25 C 42 % 11.2 C
Sensor: Nr:Datum:Temp:Feuchte:Taupunkt:
Aussen-T/F 176 31-07-2019 14:35:00 25.1 C 41 % 10.93 C
177 31-07-2019 14:40:00 24.9 C 41 % 10.75 C
178 31-07-2019 14:45:00 25.1 C 41 % 10.93 C
179 31-07-2019 14:50:00 25.2 C 41 % 11.02 C
180 31-07-2019 14:55:00 25.3 C 41 % 11.11 C
181 31-07-2019 15:00:00 25.4 C 39 % 10.45 C
182 31-07-2019 15:05:00 25.4 C 40 % 10.83 C
183 31-07-2019 15:10:00 25.1 C 41 % 10.93 C
184 31-07-2019 15:15:00 25.1 C 43 % 11.65 C
185 31-07-2019 15:20:00 25.4 C 40 % 10.83 C
186 31-07-2019 15:25:00 25.8 C 40 % 11.18 C
187 31-07-2019 15:30:00 26 C 39 % 10.98 C
188 31-07-2019 15:35:00 26 C 39 % 10.98 C
189 31-07-2019 15:40:00 25.6 C 40 % 11 C
190 31-07-2019 15:45:00 25.7 C 40 % 11.09 C
191 31-07-2019 15:50:00 25.6 C 40 % 11 C
192 31-07-2019 15:55:00 25.5 C 40 % 10.91 C
193 31-07-2019 16:00:00 25.9 C 40 % 11.27 C
194 31-07-2019 16:05:00 26.3 C 38 % 10.86 C
195 31-07-2019 16:10:00 25.8 C 39 % 10.8 C
196 31-07-2019 16:15:00 25.2 C 41 % 11.02 C
197 31-07-2019 16:20:00 24.8 C 42 % 11.02 C
198 31-07-2019 16:25:00 24.7 C 43 % 11.29 C
199 31-07-2019 16:30:00 24.6 C 43 % 11.2 C
200 31-07-2019 16:35:00 24.4 C 43 % 11.02 C
Sensor: Nr:Datum:Temp:Feuchte:Taupunkt:
Aussen-T/F 201 31-07-2019 16:40:00 24.3 C 44 % 11.27 C
202 31-07-2019 16:45:00 24.3 C 45 % 11.61 C
203 31-07-2019 16:50:00 24.4 C 45 % 11.7 C
204 31-07-2019 16:55:00 24.8 C 45 % 12.06 C
205 31-07-2019 17:00:00 24.8 C 44 % 11.72 C
206 31-07-2019 17:05:00 25.1 C 44 % 12 C
207 31-07-2019 17:10:00 25.4 C 43 % 11.92 C
208 31-07-2019 17:15:00 25.6 C 43 % 12.1 C
209 31-07-2019 17:20:00 25.7 C 43 % 12.19 C
210 31-07-2019 17:25:00 25.4 C 43 % 11.92 C
211 31-07-2019 17:30:00 25.2 C 41 % 11.02 C
212 31-07-2019 17:35:00 25.2 C 42 % 11.38 C
213 31-07-2019 17:40:00 25.1 C 43 % 11.65 C
214 31-07-2019 17:45:00 25.1 C 43 % 11.65 C
215 31-07-2019 17:50:00 25.2 C 43 % 11.74 C
216 31-07-2019 17:55:00 25.2 C 43 % 11.74 C
217 31-07-2019 18:00:00 24.8 C 44 % 11.72 C
218 31-07-2019 18:05:00 24.4 C 45 % 11.7 C
219 31-07-2019 18:10:00 24.2 C 46 % 11.85 C
220 31-07-2019 18:15:00 23.9 C 46 % 11.58 C
221 31-07-2019 18:20:00 23.8 C 48 % 12.14 C
222 31-07-2019 18:25:00 23.7 C 47 % 11.73 C
223 31-07-2019 18:30:00 23.7 C 47 % 11.73 C
224 31-07-2019 18:35:00 23.6 C 48 % 11.95 C
225 31-07-2019 18:40:00 23.6 C 50 % 12.57 C
Sensor: Nr:Datum:Temp:Feuchte:Taupunkt:
Aussen-T/F 226 31-07-2019 18:45:00 23.6 C 48 % 11.95 C
227 31-07-2019 18:50:00 23.6 C 48 % 11.95 C
228 31-07-2019 18:55:00 23.6 C 48 % 11.95 C
229 31-07-2019 19:00:00 23.6 C 48 % 11.95 C
230 31-07-2019 19:05:00 23.7 C 47 % 11.73 C
231 31-07-2019 19:10:00 23.9 C 48 % 12.23 C
232 31-07-2019 19:15:00 24 C 48 % 12.32 C
233 31-07-2019 19:20:00 23.9 C 50 % 12.85 C
234 31-07-2019 19:25:00 23.7 C 50 % 12.67 C
235 31-07-2019 19:30:00 23.4 C 50 % 12.39 C
236 31-07-2019 19:35:00 23.3 C 46 % 11.04 C
237 31-07-2019 19:40:00 23.2 C 45 % 10.62 C
238 31-07-2019 19:45:00 23.2 C 46 % 10.95 C
239 31-07-2019 19:50:00 23.1 C 51 % 12.42 C
240 31-07-2019 19:55:00 22.9 C 53 % 12.82 C
241 31-07-2019 20:00:00 22.8 C 53 % 12.73 C
242 31-07-2019 20:05:00 22.7 C 53 % 12.63 C
243 31-07-2019 20:10:00 22.4 C 53 % 12.36 C
244 31-07-2019 20:15:00 22.3 C 54 % 12.55 C
245 31-07-2019 20:20:00 22.2 C 54 % 12.45 C
246 31-07-2019 20:25:00 22.2 C 56 % 13.01 C
247 31-07-2019 20:30:00 22.2 C 57 % 13.28 C
248 31-07-2019 20:35:00 22.1 C 57 % 13.19 C
249 31-07-2019 20:40:00 21.9 C 57 % 13 C
250 31-07-2019 20:45:00 21.7 C 58 % 13.08 C
Sensor: Nr:Datum:Temp:Feuchte:Taupunkt:
Aussen-T/F 251 31-07-2019 20:50:00 21.4 C 58 % 12.8 C
252 31-07-2019 20:55:00 21.2 C 59 % 12.87 C
253 31-07-2019 21:00:00 21 C 60 % 12.94 C
254 31-07-2019 21:05:00 20.8 C 60 % 12.76 C
255 31-07-2019 21:10:00 20.7 C 61 % 12.91 C
256 31-07-2019 21:15:00 20.4 C 60 % 12.38 C
257 31-07-2019 21:20:00 20.2 C 60 % 12.19 C
258 31-07-2019 21:25:00 20 C 60 % 12 C
259 31-07-2019 21:30:00 19.8 C 59 % 11.56 C
260 31-07-2019 21:35:00 19.6 C 59 % 11.37 C
261 31-07-2019 21:40:00 19.4 C 59 % 11.19 C
262 31-07-2019 21:45:00 19.2 C 59 % 11 C
263 31-07-2019 21:50:00 19.1 C 59 % 10.91 C
264 31-07-2019 21:55:00 18.9 C 60 % 10.97 C
265 31-07-2019 22:00:00 18.8 C 60 % 10.88 C
266 31-07-2019 22:05:00 18.7 C 61 % 11.03 C
267 31-07-2019 22:10:00 18.7 C 60 % 10.78 C
268 31-07-2019 22:15:00 18.6 C 61 % 10.94 C
269 31-07-2019 22:20:00 18.6 C 61 % 10.94 C
270 31-07-2019 22:25:00 18.6 C 61 % 10.94 C
271 31-07-2019 22:30:00 18.6 C 61 % 10.94 C
272 31-07-2019 22:35:00 18.6 C 61 % 10.94 C
273 31-07-2019 22:40:00 18.7 C 62 % 11.28 C
274 31-07-2019 22:45:00 18.7 C 62 % 11.28 C
275 31-07-2019 22:50:00 18.8 C 61 % 11.13 C
Sensor: Nr:Datum:Temp:Feuchte:Taupunkt:
Aussen-T/F 276 31-07-2019 22:55:00 18.8 C 61 % 11.13 C
277 31-07-2019 23:00:00 18.9 C 61 % 11.22 C
278 31-07-2019 23:05:00 18.9 C 61 % 11.22 C
279 31-07-2019 23:10:00 18.9 C 61 % 11.22 C
280 31-07-2019 23:15:00 18.8 C 62 % 11.37 C
281 31-07-2019 23:20:00 18.8 C 62 % 11.37 C
282 31-07-2019 23:25:00 18.7 C 62 % 11.28 C
283 31-07-2019 23:30:00 18.5 C 63 % 11.33 C
284 31-07-2019 23:35:00 18.4 C 63 % 11.23 C
285 31-07-2019 23:40:00 18.2 C 64 % 11.28 C
286 31-07-2019 23:45:00 17.9 C 65 % 11.23 C
287 31-07-2019 23:50:00 17.8 C 66 % 11.37 C
288 31-07-2019 23:55:00 17.6 C 67 % 11.4 C

Legende:
   Min
   Max


Maximal/Minimal-Werte vom 31.07.2019 - 31.07.2019

Sensor Min Max Avg
Temp
(Aussen-T/F)
17.3 °C
31-07-2019  07:00:00
26.3 °C
31-07-2019  16:05:00
21.06 °C
Feuchte
(Aussen-T/F)
38 %
31-07-2019  16:05:00
80 %
31-07-2019  05:50:00
60.78 %
Taupunkt
(Aussen-T/F)
10.45 C
31-07-2019  15:00:00
14.97 C
31-07-2019  00:45:00
12.75 C

Die Daten stammen von einer Davis Vantage Pro 2 Wetter-Station und werden unter Linux mit der Software wview2wettercgi und aufbereitet. Alle Angaben erfolgen ohne Gewähr für ihre Vollständigkeit oder Richtigkeit.
Kontakt: Rainer Krienke krienke@uni-koblenz.de . Meine Webseiten an der Uni Koblenz oder privat.
Version: $Revision: 0.78 $